Voltar ao catálogo

STARLINK-35754

AtivoComunicaçõesVLEO
NORAD 67054·PAYLOAD·🇺🇸 United States

Lançado Dec 11, 2025 de Cape Canaveral Space Force Station

Loading…

Próximas Passagens (próximas 24 horas)

TLE

AtualizadoSource: CelesTrak SupGP

Época: Sep 15, 2026, 03:22 UTC

1 67054C 25294AA  26258.14076389 -.00020011  00000+0 -72455-3 0  2584
2 67054  43.0043  48.0898 0001659 270.7634 102.5396 15.27599160    17

Acompanhe STARLINK-35754 em tempo real com AllMySat

Download on the App Store